Lapse_Rate
5.7 5.9 6.1 5.7 5.9 6.1 6.4 6.0 6.3 6.6 7.2 7.7 7.4 7.6 7.4 6.9 6.4 6.0 5.5 4.4 3.5 3.4 4.5 3.9 4.7 5.2 5.6 5.7 5.7 6.1 6.3 6.1 6.1 6.6 6.7 6.7 6.4 5.7 5.8 5.1 6.0 5.9 6.2 6.4
6.1 6.4 6.0 5.7 5.9 5.9 6.2 6.3 6.3 6.4 6.8 7.3 7.4 7.4 7.9 7.8 7.4 6.7 6.1 5.9 4.9 4.1 4.6 4.2 4.3 5.0 5.2 5.4 5.6 5.8 5.7 6.2 5.8 6.5 6.7 6.5 6.3 6.2 5.9 6.1 6.2 5.6 5.9 6.1
5.5 5.9 5.7 5.7 5.9 5.9 6.5 6.3 6.2 6.2 6.4 7.1 6.7 7.4 7.9 8.4 8.5 7.9 7.0 6.2 5.9 4.7 4.5 4.6 4.2 4.9 4.6 5.0 5.5 5.7 5.7 5.5 5.4 5.6 6.3 6.5 6.0 6.4 5.8 5.1 5.5 5.7 5.7 6.2
5.6 5.8 5.8 6.1 6.1 5.7 5.5 6.0 5.8 6.1 6.2 6.5 7.6 6.9 8.0 7.8 8.2 8.4 8.4 7.3 6.7 6.7 5.7 4.4 4.6 4.6 5.0 4.8 5.6 5.5 5.7 5.5 5.8 6.0 6.3 5.7 6.1 5.9 5.7 5.4 6.1 6.2 6.3 6.3
5.8 5.6 5.7 6.5 6.4 6.2 6.1 6.0 6.0 5.9 6.3 6.7 8.0 7.7 6.6 7.5 8.2 8.3 8.4 7.3 6.7 6.3 6.7 4.6 4.8 4.4 4.7 5.0 5.0 5.5 5.5 5.9 5.4 6.0 6.3 5.9 6.2 6.3 6.0 6.0 6.2 6.5 6.2 6.2
6.0 6.2 5.9 5.5 6.3 6.5 6.5 6.0 6.3 6.8 7.2 5.8 7.3 7.9 6.7 6.2 6.3 7.6 8.2 7.9 7.2 6.6 6.6 6.1 4.4 5.1 4.7 4.8 5.1 5.0 5.5 6.2 5.3 5.7 6.4 6.1 6.2 6.1 5.8 6.2 6.0 6.3 5.9 6.2
5.6 5.7 6.0 6.0 5.7 6.7 6.3 6.0 4.8 4.8 6.0 7.1 7.9 7.4 6.1 6.3 5.9 5.7 7.1 8.3 8.0 7.0 6.0 5.8 4.5 5.6 4.9 5.1 5.0 4.7 5.3 5.8 5.3 5.2 6.1 6.0 6.2 6.8 6.3 6.2 6.6 6.6 6.1 6.2
5.0 5.3 6.0 6.1 6.2 6.1 6.3 6.7 6.8 5.9 6.1 6.6 7.1 7.8 6.7 6.5 6.1 5.3 5.4 6.1 7.4 7.2 6.6 6.3 5.1 5.4 5.0 5.4 5.1 5.0 5.1 5.6 5.5 5.7 6.2 6.2 5.2 6.0 5.1 6.1 6.2 6.6 6.7 6.7
4.4 5.8 6.7 6.1 6.1 6.0 5.9 5.9 6.9 5.9 6.5 6.1 7.4 7.6 7.0 7.2 7.7 6.0 5.9 5.9 6.1 7.2 6.7 6.8 6.1 5.2 5.0 5.4 5.1 5.4 5.7 6.0 5.8 6.3 5.9 6.4 5.7 5.8 5.8 5.9 6.1 6.2 6.4 6.4
4.9 4.8 5.9 6.3 6.0 6.5 6.4 6.0 5.3 6.1 5.3 5.9 7.3 7.2 5.9 5.4 4.8 5.4 6.0 6.0 6.4 6.8 6.4 6.7 6.5 5.3 5.1 4.8 4.5 5.4 6.0 5.7 5.4 5.1 5.4 5.6 4.9 5.8 5.8 5.9 6.1 5.8 5.9 6.2
4.7 5.0 5.8 5.7 5.7 5.6 5.6 5.2 5.2 5.7 6.4 6.1 6.1 6.9 6.1 5.2 5.3 5.3 5.8 6.3 6.9 6.7 6.4 6.8 6.4 5.5 5.2 4.9 4.6 5.5 5.9 5.9 5.5 5.7 5.5 5.2 4.9 5.7 6.4 6.2 6.0 6.0 5.9 5.9
4.7 4.5 5.0 5.6 5.7 5.9 5.8 5.4 5.0 5.1 5.6 5.4 6.1 5.7 6.5 5.1 5.6 5.2 5.9 6.5 7.4 6.4 6.7 6.4 6.0 5.6 5.9 5.4 5.9 6.1 6.2 5.9 5.6 6.0 4.9 5.5 5.1 5.0 5.8 5.3 5.8 5.9 5.7 5.8
4.6 4.8 4.4 5.4 5.9 6.0 5.4 5.2 5.3 5.0 5.0 5.5 4.7 5.2 5.0 4.9 5.4 5.4 5.6 7.4 7.9 6.7 6.9 6.6 6.8 6.8 6.4 6.2 6.3 6.3 6.2 5.7 5.5 5.4 5.5 5.5 5.4 5.0 5.2 5.3 4.8 5.1 5.2 5.7
4.7 4.9 5.0 5.2 5.3 5.1 5.0 5.2 4.8 4.3 4.3 4.1 4.3 4.0 4.2 4.9 4.9 6.2 6.4 8.0 8.2 7.7 7.8 7.4 7.5 7.0 6.8 6.4 6.4 6.1 6.3 5.6 5.6 5.4 5.2 5.4 5.1 5.0 5.1 5.2 5.3 5.2 5.1 5.2
4.3 4.7 5.2 5.3 5.4 5.5 5.0 5.0 4.4 3.9 3.8 3.7 3.6 3.5 3.7 4.6 4.4 4.5 5.0 5.8 7.5 7.9 7.8 7.9 7.5 7.3 6.7 6.5 6.3 6.2 6.4 5.8 5.3 5.8 5.5 5.2 5.9 5.6 5.2 5.1 5.3 5.1 5.2 5.0
4.1 4.4 4.9 5.6 5.7 5.2 5.1 5.3 4.4 3.7 3.3 3.3 3.8 3.2 4.2 4.9 4.4 4.8 5.9 7.2 6.7 6.8 7.1 7.4 7.4 6.9 6.8 6.4 6.1 6.5 6.7 6.2 6.3 5.7 6.0 5.9 5.4 5.7 5.2 5.1 5.0 5.1 5.2 5.1
4.1 4.0 4.4 5.2 5.5 5.6 5.0 4.5 3.9 3.8 3.2 3.0 2.9 3.3 3.8 4.7 4.5 4.5 5.6 6.5 7.0 6.6 6.7 7.2 7.0 6.6 6.9 6.7 6.4 6.6 6.6 6.2 5.7 5.9 5.7 5.1 5.7 5.5 5.4 5.1 5.1 5.2 5.0 5.5
4.1 4.0 4.4 4.7 5.1 5.4 4.7 4.7 3.9 3.8 3.4 3.1 3.8 3.9 3.6 3.8 4.4 4.0 4.5 6.2 7.2 6.9 6.8 7.2 7.1 7.1 6.8 6.8 6.8 6.6 6.5 6.6 5.5 5.7 6.0 5.6 5.2 5.4 5.2 5.1 5.3 5.5 5.5 5.7
4.4 4.0 4.2 4.5 4.7 5.0 4.3 4.2 3.7 3.6 3.7 3.1 3.3 3.4 3.6 4.9 4.7 4.5 4.7 5.1 6.0 6.8 6.7 7.0 6.8 7.1 6.7 6.6 6.7 6.5 6.4 6.0 6.3 5.9 5.7 5.7 5.7 6.0 5.8 5.7 5.9 5.8 6.2 6.3
4.6 4.2 4.1 4.7 4.6 4.6 3.1 4.6 4.3 3.8 3.6 3.5 3.1 3.5 3.9 4.0 4.9 5.2 5.4 5.7 6.2 6.7 6.8 6.5 6.8 7.1 7.1 7.0 6.9 6.6 6.4 6.2 5.9 6.4 6.4 6.9 6.6 6.7 6.5 6.3 6.3 6.3 6.4 6.6
4.1 4.2 4.2 4.2 4.7 4.3 3.5 4.0 4.3 2.8 2.7 2.9 3.1 3.4 3.7 3.4 3.1 4.1 4.8 5.3 6.0 6.5 6.7 6.4 6.6 7.1 7.2 7.3 7.1 7.0 7.1 6.8 7.0 7.3 7.2 6.9 6.9 7.2 7.1 6.9 6.9 6.8 6.9 7.0
3.8 3.5 3.5 3.5 4.3 3.4 3.6 3.9 2.8 2.4 3.0 2.9 3.5 3.6 3.7 3.8 4.1 4.1 4.4 5.2 5.2 5.5 5.8 6.4 6.2 6.0 6.6 6.6 6.6 6.8 7.3 7.1 7.1 7.1 6.9 6.9 7.1 7.2 7.2 7.0 6.7 6.5 6.6 6.5
4.0 3.5 3.3 3.0 3.8 3.3 3.1 3.4 3.1 2.8 3.1 3.1 3.4 3.4 3.5 3.6 3.9 4.4 4.8 5.2 5.5 5.5 5.4 6.5 6.7 6.7 6.0 5.9 6.1 6.2 6.6 6.9 6.9 6.8 6.9 7.0 7.1 6.9 6.9 6.7 6.5 6.3 6.2 6.1
3.6 3.9 3.5 3.2 3.2 3.4 3.3 3.3 3.4 3.2 3.2 3.2 3.2 3.3 3.6 4.1 4.4 4.6 5.0 5.6 5.9 6.4 6.5 6.5 6.9 6.9 6.9 6.7 6.4 6.3 6.2 6.2 6.3 6.6 6.8 6.7 6.6 6.5 6.5 6.5 6.4 6.2 6.1 6.1
3.6 3.5 3.6 3.7 3.7 3.6 3.6 3.5 3.7 3.9 3.8 3.4 3.4 3.4 3.7 4.2 4.6 4.8 5.2 5.7 5.9 6.0 6.3 6.5 6.3 7.0 7.0 7.2 7.1 6.9 6.7 6.3 6.2 6.2 6.2 6.2 6.2 6.2 6.2 6.1 6.1 6.2 5.9 6.0
3.9 3.3 3.4 3.8 3.4 3.5 3.5 3.8 3.9 4.0 4.0 3.7 3.7 3.6 3.7 4.3 4.6 4.8 5.2 5.3 5.5 5.9 6.0 6.2 6.3 6.6 6.8 7.0 7.0 7.0 7.0 6.9 6.7 6.1 6.1 6.2 6.2 6.1 6.1 6.1 6.1 5.9 6.0 5.9
Wind_Speed
8 6 6 10 10 14 15 16 19 22 20 23 21 22 22 20 18 18 20 20 19 21 19 21 24 21 9 16 16 22 24 25 16 16 16 14 15 15 15 8 22 27 26 25
9 4 8 13 13 14 17 16 17 21 18 19 22 25 22 20 22 22 19 22 20 20 19 21 22 20 15 10 18 21 24 27 19 14 16 15 15 16 17 11 18 22 23 23
9 10 14 15 12 12 13 18 18 23 27 20 21 24 14 21 23 21 21 20 21 21 18 21 21 19 15 14 19 20 24 29 25 23 17 15 15 14 13 14 12 13 23 24
7 12 16 12 14 15 15 17 26 27 21 13 9 15 13 12 12 13 12 15 19 20 20 22 21 18 15 14 11 21 24 24 22 24 21 23 16 16 14 14 13 14 24 21
6 20 11 11 12 15 20 23 30 31 21 12 20 3 5 12 15 18 20 22 22 18 22 21 24 19 18 9 8 15 18 12 25 23 23 20 18 14 17 15 20 16 14 21
21 14 2 4 11 17 17 21 27 12 1 1 3 2 4 8 15 19 21 22 23 22 16 23 25 20 17 10 5 11 15 17 19 25 24 25 22 20 17 16 15 14 12 12
12 11 4 4 13 10 17 19 7 6 4 5 5 11 6 12 15 20 22 25 23 23 20 20 21 19 15 11 7 9 15 16 25 24 24 23 25 23 23 22 16 19 14 13
9 8 5 13 4 4 7 10 5 7 7 13 22 1 4 15 14 19 22 22 20 21 17 16 20 16 13 9 7 8 16 17 19 19 23 25 26 17 15 20 16 14 14 15
6 6 20 16 8 7 6 12 14 6 13 9 6 2 4 26 30 30 29 24 21 21 18 19 19 16 14 9 8 10 14 14 18 24 18 18 17 22 21 19 19 14 16 14
5 12 7 11 5 1 4 9 6 5 5 9 8 5 6 27 26 31 30 24 23 19 18 15 15 14 14 9 8 11 16 18 14 20 14 17 17 19 19 17 17 17 17 17
6 4 11 12 9 8 5 5 4 5 4 5 8 4 10 25 25 30 28 22 21 18 17 17 11 16 16 10 9 13 13 18 17 17 15 14 14 17 18 18 17 17 17 16
3 4 6 22 5 11 15 6 4 4 6 7 5 6 17 21 24 23 26 21 19 16 16 17 10 17 15 11 11 13 15 17 17 15 18 15 15 16 16 17 16 16 17 16
4 3 7 7 2 2 4 12 10 11 4 3 7 11 20 20 26 23 21 22 21 17 20 18 17 7 7 9 11 14 15 16 17 15 15 17 15 15 15 18 16 16 16 17
6 2 7 9 16 15 3 14 16 8 3 9 6 26 22 29 29 31 27 27 19 17 18 19 19 17 2 11 12 14 15 16 15 15 18 17 17 14 14 15 17 16 17 15
2 4 11 19 19 1 3 13 17 11 5 4 19 18 20 27 27 26 22 21 23 26 21 19 16 16 15 2 11 11 14 17 16 15 16 15 15 13 12 12 14 15 14 14
6 4 14 16 7 9 1 17 17 10 4 5 19 17 22 25 23 20 28 28 26 22 21 17 18 17 15 13 5 12 13 14 14 12 13 15 13 14 13 12 12 12 13 12
3 6 10 5 14 11 3 9 16 12 3 10 19 23 24 27 28 22 28 26 24 26 22 20 17 15 13 12 10 11 14 17 17 14 12 11 14 13 13 13 13 13 13 13
4 8 4 6 11 1 4 9 16 13 2 16 21 22 23 22 23 14 23 25 25 25 26 23 18 16 14 12 10 6 13 13 16 15 15 14 13 14 14 14 13 13 11 13
7 6 3 3 8 2 4 15 21 11 3 19 24 22 24 26 22 8 22 22 21 21 19 17 16 14 14 12 10 5 12 14 15 13 13 13 16 15 14 13 13 12 11 10
11 7 2 6 5 4 9 19 23 8 4 25 23 24 26 22 18 18 28 25 25 21 18 17 17 13 13 13 10 6 11 14 13 13 12 12 12 15 15 14 13 11 10 10
5 4 4 6 4 3 13 15 18 8 9 23 22 22 21 18 13 15 19 22 21 18 20 19 14 12 13 14 10 13 10 8 7 11 11 11 10 12 13 13 11 11 10 10
1 3 4 5 4 4 17 6 6 7 15 18 20 18 18 19 19 18 18 18 18 19 19 18 12 13 15 15 12 10 11 7 6 11 11 9 9 8 10 13 10 10 11 11
3 3 2 2 4 9 11 5 8 11 15 15 17 20 17 18 17 20 17 17 16 15 14 14 13 14 15 16 13 12 11 8 6 11 10 9 9 8 10 11 10 8 9 9
1 3 2 5 2 9 9 10 12 14 14 17 16 16 17 18 18 18 16 17 17 16 17 16 16 17 16 15 14 11 10 8 6 9 9 8 10 9 8 6 7 8 8 8
3 1 4 6 6 11 1 15 15 18 15 17 17 15 15 15 16 16 14 17 17 17 16 14 14 14 15 13 14 13 11 8 8 7 7 7 7 9 8 6 5 5 3 8
4 4 1 4 6 2 8 13 17 14 17 15 13 16 15 14 15 14 12 12 13 14 16 15 16 15 15 13 13 13 12 8 6 7 5 5 6 7 7 8 8 13 14 15
Wind_Direction
321 289 12 347 323 308 296 287 287 292 294 295 290 287 283 282 280 260 261 264 263 263 273 275 282 272 235 206 200 190 179 178 174 170 161 163 157 152 162 136 145 148 150 155
343 49 5 321 312 308 299 307 302 295 296 296 295 284 285 276 276 273 263 256 251 254 260 267 272 270 256 227 207 196 195 177 168 176 164 157 159 153 160 145 149 148 147 149
312 292 330 319 317 323 325 304 305 299 301 285 279 281 273 272 258 258 264 243 253 252 248 260 267 268 255 230 212 205 200 179 164 165 161 161 152 154 157 149 144 149 150 152
303 341 320 325 312 347 310 306 295 293 302 297 300 290 321 348 351 355 322 248 242 241 237 252 262 269 255 243 218 209 203 188 167 164 160 160 153 158 159 159 148 156 157 155
282 311 306 315 327 323 299 317 304 297 282 279 285 249 8 359 356 347 337 330 325 298 225 233 251 258 271 286 216 204 206 204 165 165 167 155 161 154 155 163 152 150 155 156
319 296 202 277 303 312 327 317 305 293 245 319 271 331 53 15 345 336 330 321 316 310 271 223 233 247 260 263 278 198 185 183 173 164 170 161 166 160 150 157 155 152 152 157
328 327 62 349 329 307 341 339 333 352 10 308 309 328 62 356 5 345 330 318 309 299 295 226 224 236 249 245 243 212 198 177 182 176 163 167 159 165 158 158 161 158 158 162
345 325 49 330 342 312 330 349 329 313 329 302 306 271 118 17 355 344 333 316 312 304 302 295 214 220 244 237 232 194 181 188 181 165 171 167 160 152 160 163 161 166 164 163
313 271 323 301 13 25 324 357 304 258 263 270 258 172 198 355 352 347 335 324 320 307 299 293 215 216 238 233 220 184 174 172 196 159 162 157 165 160 159 165 158 166 157 157
280 298 291 325 330 318 40 336 329 330 307 311 324 331 351 356 344 336 329 321 322 311 313 283 194 202 233 213 208 178 173 169 160 147 161 162 173 158 153 157 153 163 157 154
302 247 291 305 333 61 356 4 339 281 295 321 335 316 6 350 337 327 322 325 325 323 324 314 195 211 230 208 182 161 152 160 162 151 141 150 161 146 153 146 147 153 150 153
272 289 300 300 124 126 67 5 336 310 323 299 301 275 12 335 332 325 322 330 334 334 344 340 278 207 201 195 152 153 149 159 148 143 150 142 135 148 150 139 144 149 153 149
310 309 306 325 307 216 61 13 354 319 262 12 312 305 326 332 331 334 330 340 349 349 358 351 349 180 165 149 142 149 147 149 148 145 140 131 131 148 154 136 156 153 144 159
352 291 272 282 306 303 330 10 358 333 321 307 311 316 333 338 339 340 346 347 348 355 4 358 2 358 107 135 139 147 141 145 140 138 138 135 140 156 152 148 147 146 147 149
59 261 295 305 298 61 91 24 355 339 3 336 321 327 336 337 335 333 342 340 357 12 360 355 351 355 1 70 138 136 128 143 135 135 129 135 139 134 125 135 134 137 140 151
337 281 317 308 285 195 70 22 354 339 357 301 331 336 337 331 333 333 349 356 2 357 355 348 356 356 359 2 148 142 134 131 118 128 132 136 140 131 140 138 129 134 146 150
310 309 322 275 316 308 81 352 354 336 8 1 357 331 329 337 339 342 353 355 352 349 351 352 355 353 344 348 342 144 145 139 138 131 127 139 135 140 139 137 141 147 157 151
279 318 286 292 323 35 183 19 342 336 34 11 349 337 332 331 330 325 352 351 351 345 346 351 353 345 345 341 346 0 140 137 135 140 147 146 144 143 142 148 149 145 150 155
4 317 315 293 311 157 57 341 337 347 298 13 343 338 337 335 329 347 355 352 348 344 342 343 339 340 340 341 330 9 120 128 123 138 139 143 143 142 143 143 145 145 146 146
357 318 192 308 299 351 354 332 328 306 249 3 342 337 337 338 0 347 342 346 344 344 345 347 339 345 350 350 346 117 117 115 124 135 134 141 150 145 146 146 146 150 148 145
343 346 317 333 285 113 3 356 333 33 311 333 335 329 331 348 340 322 333 342 341 343 344 346 343 358 5 5 19 51 64 65 118 128 135 138 147 144 141 140 140 138 136 135
13 339 341 342 356 351 15 0 42 304 318 324 322 324 333 338 337 341 340 340 340 342 343 345 350 11 17 18 26 33 39 341 122 120 120 120 122 125 129 130 124 123 127 125
9 162 227 244 292 353 350 45 358 353 331 324 326 329 338 336 342 338 337 342 346 351 348 352 2 11 19 22 22 30 357 348 103 109 108 107 103 114 124 123 121 118 122 128
50 171 245 339 40 358 310 15 356 346 331 324 324 331 336 337 340 341 342 346 350 357 359 359 6 15 17 14 16 17 6 18 62 100 104 107 112 99 91 105 117 128 136 137
207 64 279 264 317 336 27 351 339 329 332 324 328 340 340 338 341 345 346 347 351 353 356 3 7 9 11 5 14 12 12 27 67 78 95 96 104 110 100 86 110 119 92 153
175 192 189 262 347 315 293 316 316 332 323 326 332 340 344 341 339 343 348 347 355 350 348 2 5 9 7 11 14 13 9 17 61 74 69 97 113 109 110 113 104 94 103 113